Nellis AFB, NV

10:16 AM PDT on May 27, 2017 (GMT -0700)
Nellis Air Force Base

Weather History for KLSV - May, 2013

Change the Weather History Date:

Sunday, May 5, 2013

  Actual Average Record
Temperature  
Mean Temperature 73 °F -  
Max Temperature 81 °F 84 °F 99 °F (2017)
Min Temperature 66 °F 58 °F 51 °F (2007)
Cooling Degree Days 8    
Growing Degree Days 23 (Base 50)    
Moisture  
Dew Point 23 °F    
Average Humidity 14    
Maximum Humidity 19    
Minimum Humidity 10    
Precipitation  
Precipitation 0.00 in - - ()
Sea Level Pressure  
Sea Level Pressure 29.69 in    
Wind  
Wind Speed 12 mph (SE)    
Max Wind Speed 24 mph    
Max Gust Speed 31 mph    
Visibility 10 miles    
Events      
Averages and records for this station are not official NWS values.
T = Trace of Precipitation, MM = Missing Value Source: NWS Daily Summary

Daily Weather History Graph

Daily Weather History Graph

Search for Another Location

Airport or City:

Trip Planner

Search our weather history database for the weather conditions in past years. The results will help you decide how hot, cold, wet, or windy it might be!

Date:

Astronomy

May. 05, 2013 Rise Set
Actual Time 5:42 AM PDT 7:31 PM PDT
Civil Twilight 5:14 AM PDT 7:59 PM PDT
Nautical Twilight 4:40 AM PDT 8:33 PM PDT
Astronomical Twilight 4:05 AM PDT 9:09 PM PDT
Moon 3:07 AM PDT (5/5) 3:41 PM PDT (5/5)
Length of Visible Light 14h 44m
Length of Day
13h 48m
Waning Crescent, 17% of the Moon is Illuminated
May 5
Waning Crescent
May 9
New
May 17
First Quarter
May 24
Full
May 31
Last Quarter

Hourly Weather History & Observations

Time (PDT) Temp. Dew Point Humidity Pressure Visibility Wind Dir Wind Speed Gust Speed Precip Events Conditions
12:58 AM 75.0 °F 26.4 °F 17% 29.57 in 10.0 mi South 10.4 mph - N/A   Clear
1:58 AM 73.4 °F 26.4 °F 17% 29.59 in 10.0 mi South 8.1 mph - N/A   Clear
2:58 AM 73.0 °F 23.4 °F 16% 29.58 in 10.0 mi SE 2.3 mph - N/A   Clear
3:58 AM 72.5 °F 25.7 °F 17% 29.59 in 10.0 mi South 5.8 mph - N/A   Clear
4:58 AM 67.1 °F 22.8 °F 19% 29.61 in 10.0 mi ENE 4.6 mph - N/A   Clear
5:58 AM 66.2 °F 23.0 °F 19% 29.63 in 10.0 mi ENE 3.5 mph - N/A   Clear
6:58 AM 70.9 °F 25.7 °F 18% 29.65 in 10.0 mi SE 12.7 mph - N/A   Clear
7:58 AM 73.2 °F 24.8 °F 16% 29.67 in 10.0 mi SE 11.5 mph - N/A   Clear
8:58 AM 74.8 °F 26.2 °F 16% 29.69 in 10.0 mi SE 16.1 mph - N/A   Clear
9:58 AM 77.5 °F 24.1 °F 14% 29.70 in 10.0 mi ESE 13.8 mph 18.4 mph N/A   Clear
10:58 AM 78.8 °F 24.4 °F 13% 29.71 in 10.0 mi ESE 13.8 mph 20.7 mph N/A   Partly Cloudy
10:59 AM 78.8 °F 24.8 °F 14% 29.77 in 10.0 mi East 11.5 mph 20.7 mph N/A   Partly Cloudy
11:03 AM 78.8 °F 24.8 °F 14% 29.77 in 10.0 mi SE 12.7 mph - N/A   Partly Cloudy
11:04 AM 78.8 °F 24.8 °F 14% 29.77 in 10.0 mi SE 12.7 mph - N/A   Partly Cloudy
11:41 AM 80.6 °F 23.0 °F 12% 29.77 in 10.0 mi SE 16.1 mph 25.3 mph N/A   Partly Cloudy
11:58 AM 80.4 °F 21.7 °F 11% 29.71 in 10.0 mi South 20.7 mph - N/A   Partly Cloudy
12:58 PM 78.3 °F 21.2 °F 12% 29.71 in 10.0 mi SSE 23.0 mph - N/A   Partly Cloudy
1:58 PM 79.2 °F 22.8 °F 12% 29.71 in 10.0 mi SE 18.4 mph 26.5 mph N/A   Mostly Cloudy
2:58 PM 79.3 °F 21.0 °F 11% 29.70 in 10.0 mi SE 16.1 mph 20.7 mph N/A   Partly Cloudy
3:58 PM 80.2 °F 21.6 °F 11% 29.68 in 10.0 mi SE 12.7 mph 20.7 mph N/A   Scattered Clouds
4:58 PM 80.6 °F 19.8 °F 10% 29.68 in 10.0 mi SSE 12.7 mph 18.4 mph N/A   Mostly Cloudy
5:57 PM 80.6 °F 21.2 °F 11% 29.72 in 10.0 mi South 20.7 mph 27.6 mph N/A   Scattered Clouds
5:58 PM 79.9 °F 21.4 °F 11% 29.67 in 10.0 mi South 21.9 mph 28.8 mph N/A   Scattered Clouds
6:58 PM 77.7 °F 18.0 °F 11% 29.68 in 10.0 mi SSE 24.2 mph 31.1 mph N/A   Partly Cloudy
7:58 PM 76.5 °F 21.7 °F 13% 29.70 in 10.0 mi SSE 19.6 mph - N/A   Mostly Cloudy
8:58 PM 75.0 °F 21.0 °F 13% 29.72 in 10.0 mi South 15.0 mph - N/A   Mostly Cloudy
9:58 PM 73.9 °F 20.5 °F 13% 29.72 in 10.0 mi SSE 15.0 mph - N/A   Mostly Cloudy
10:58 PM 70.7 °F 21.2 °F 15% 29.73 in 10.0 mi South 6.9 mph - N/A   Partly Cloudy
11:58 PM 69.1 °F 22.6 °F 17% 29.73 in 10.0 mi SSE 5.8 mph - N/A   Partly Cloudy